Regional Weather Roundup
Issued by NWS

Home | Current Version | Previous Version | Graphics & Text | Print | Product List | Glossary On
Versions: 1 2 3 4 5 6 7 8 9 10 11 12 13 14 15 16 17 18 19 20 21 22 23 24 25 26 27 28 29 30 31 32 33 34 35 36 37 38 39 40 41 42 43 44 45 46 47 48 49 50
000
ASUS43 KFSD 271507
RWRSD

SOUTH DAKOTA HOURLY REGIONAL WEATHER ROUNDUP
NATIONAL WEATHER SERVICE ABERDEEN SD
1000 AM CDT WED AUG 27 2014

...SATELLITE DATA IS USED TO AUGMENT CLOUD COVER ABOVE 12000 FEET...

NOTE: "FAIR" INDICATES FEW OR NO CLOUDS BELOW 12,000 FEET WITH NO
SIGNIFICANT WEATHER AND/OR OBSTRUCTION TO VISIBILITY.

SDZ001>005-009-010-012>017-271600-
...NORTHWEST AND NORTH CENTRAL SOUTH DAKOTA...

CITY           SKY/WX    TMP DP  RH WIND       PRES   REMARKS
BUFFALO          N/A     58  55  90 S5        30.10F
FAITH            N/A     57  56  96 CALM      30.16S
MOBRIDGE       SUNNY     63  58  83 E7        30.12F
$$

SDZ012>016-024>037-041>051-057-063-271600-
...SOUTHWEST AND SOUTH CENTRAL SOUTH DAKOTA...

CITY           SKY/WX    TMP DP  RH WIND       PRES   REMARKS
RAPID CITY     SUNNY     64  55  72 N8        30.15F
ELLSWORTH AFB  SUNNY     62  56  80 NE5       30.15F
CUSTER         SUNNY     64  52  64 NE9       30.23F
PHILIP         CLOUDY    60  58  92 N5        30.12S FOG
PINE RIDGE     MOSUNNY   66  63  90 MISG      30.13R
PIERRE         CLOUDY    62  62 100 E7        30.11S FOG
WINNER         NOT AVBL
$$

SDZ004>011-016>023-039-040-271600-
...NORTHEAST SOUTH DAKOTA...

CITY           SKY/WX    TMP DP  RH WIND       PRES   REMARKS
ABERDEEN       SUNNY     64  59  83 SE8       30.17S
WATERTOWN      MOSUNNY   65  57  75 SE10      30.20R
BROOKINGS      NOT AVBL
SISSETON         N/A     65  57  75 S5        30.18S
$$

SDZ017-020-022-023-036>040-048>070-271600-
...SOUTHEAST SOUTH DAKOTA...

CITY           SKY/WX    TMP DP  RH WIND       PRES   REMARKS
SIOUX FALLS    CLOUDY    64  57  78 E6        30.21R
YANKTON        CLOUDY    61  57  88 E10       30.17F
MITCHELL       CLOUDY    63  59  87 SE10      30.17S
HURON          CLOUDY    63  58  83 SE9       30.17R
CHAMBERLAIN    CLOUDY    63  60  91 E10       30.15R
$$


USA.gov is the U.S. government's official web portal to all federal, state and local government web resources and services.